Location: Castle
(40.7167°S, 175.9500°E)
Time: 04:47:38
(UTC+00:00)

Envisat - Visible Passes

Search period start: 07 October 2024 00:00
Search period end: 17 October 2024 00:00
Orbit: 762 x 764 km, 98.3° (Epoch: 06 October)

Date Brightness Start Highest point End Pass type
(mag) Time Alt. Az. Time Alt. Az. Time Alt. Az.
07 Oct 4.6 14:09:12 31° SSE 14:09:12 31° SSE 14:12:06 10° S visible
07 Oct 5.1 15:49:20 13° SW 15:49:20 13° SW 15:50:02 10° SW visible
08 Oct 5.2 13:31:06 21° SE 13:31:06 21° SE 13:33:54 10° SSE visible
08 Oct 4.5 15:11:15 25° SW 15:11:15 25° SW 15:13:31 10° SSW visible
09 Oct 5.9 12:53:01 11° ESE 12:53:01 11° ESE 12:54:01 10° SE visible
09 Oct 4.1 14:33:09 37° S 14:33:09 37° S 14:36:15 10° S visible
10 Oct 4.6 13:55:04 31° SE 13:55:04 31° SE 13:58:26 10° S visible
10 Oct 4.7 15:35:12 18° SW 15:35:12 18° SW 15:37:02 10° SW visible
11 Oct 5.4 13:16:58 17° ESE 13:16:58 17° ESE 13:19:57 10° SSE visible
11 Oct 4.0 14:57:06 35° SW 14:57:06 35° SW 15:00:11 10° SSW visible
12 Oct 4.0 14:19:00 44° SSE 14:19:00 44° SSE 14:22:42 10° S visible
12 Oct 5.0 15:59:09 12° WSW 15:59:09 12° WSW 15:59:58 10° SW visible
13 Oct 4.8 13:40:55 27° SE 13:40:55 27° SE 13:44:42 10° S visible
13 Oct 4.2 15:21:03 26° WSW 15:21:03 26° WSW 15:23:51 10° SSW visible
14 Oct 5.6 13:02:49 13° ESE 13:03:19 13° ESE 13:05:44 10° SSE visible
14 Oct 3.6 14:42:57 49° SSW 14:42:57 49° SSW 14:46:44 10° SSW visible
15 Oct 4.0 14:04:52 43° SE 14:04:52 43° SE 14:09:04 10° S visible
15 Oct 4.6 15:45:00 18° WSW 15:45:00 18° WSW 15:47:09 10° SW visible
16 Oct 5.1 13:26:46 22° ESE 13:26:59 22° ESE 13:30:50 10° SSE visible
16 Oct 3.7 15:06:55 38° WSW 15:06:55 38° WSW 15:10:33 10° SSW visible
